Regional Weather Roundup
Issued by NWS

Home | Current Version | Previous Version | Graphics & Text | Print | Product List | Glossary On
Versions: 1 2 3 4 5 6 7 8 9 10 11 12 13 14 15 16 17 18 19 20 21 22 23 24 25 26 27 28 29 30 31 32 33 34 35 36 37 38 39 40 41 42 43 44 45 46 47 48 49 50
000
ASUS43 KDMX 041307
RWRIA

WEATHER ROUNDUP FOR IOWA
NATIONAL WEATHER SERVICE DES MOINES IA
800 AM CDT TUE AUG 04 2015

NOTE: "FAIR" INDICATES FEW OR NO CLOUDS BELOW 12,000 FEET WITH NO
SIGNIFICANT WEATHER AND/OR OBSTRUCTIONS TO VISIBILITY.

* - THESE STATIONS ARE NOT NWS STATIONS...THUS NOT UNDER NWS
QUALITY CONTROL.  THEY ALSO DO NOT REPORT WEATHER SUCH
AS PRECIPITATION OR FOG.

IAZ001>003-012>014-020>022-031>034-043>046-041400-
   NORTHWEST IOWA

CITY           SKY/WX    TMP DP  RH WIND       PRES   REMARKS
CARROLL *      SUNNY     63  63 100 CALM      30.03R
CHEROKEE *     CLOUDY    61  61 100 CALM      30.04S
DENISON *      SUNNY     64  63  94 N7        30.02R FOG
LE MARS *      CLOUDY    63  61  94 CALM      30.05R
ORANGE CITY *  MOSUNNY   61  57  88 CALM      30.05R
SHELDON *      SUNNY     59  59 100 CALM      30.03S
SIOUX CITY     CLOUDY    67  61  81 SE3       30.03R
SPENCER        CLOUDY    60  55  83 CALM      30.06R
STORM LAKE *   SUNNY     63  59  88 NE3       30.05S
$$

IAZ055>058-069>071-079>083-090>094-041400-
   SOUTHWEST IOWA

CITY           SKY/WX    TMP DP  RH WIND       PRES   REMARKS
ATLANTIC *     CLOUDY    66  64  94 CALM      30.03R
AUDUBON *      MOSUNNY   66  63  88 CALM      30.04R
CLARINDA *     LGT RAIN  68  64  88 W15       30.06R
COUNCIL BLFS * LGT RAIN  64  63  94 MISG      30.02F
CRESTON *      LGT RAIN  64  63  94 E9        30.01S
HARLAN  *      PTSUNNY   66  66 100 CALM      30.06S
LAMONI         CLOUDY    68  63  84 E5        29.99S
RED OAK *      HVY RAIN  66  64  94 E7        30.04R
SHENANDOAH *   LGT RAIN  66  64  94 E13       30.02R
$$

IAZ047>049-059>061-072>074-084-041400-
   CENTRAL IOWA

CITY           SKY/WX    TMP DP  RH WIND       PRES   REMARKS
AMES           CLOUDY    64  61  90 CALM      30.02R
ANKENY *       SUNNY     64  63  94 N6        30.01R
CHARITON *     MOSUNNY   66  63  88 S5        30.01R
DES MOINES     CLOUDY    70  60  70 VRB3      30.00R
GRINNELL*      PTSUNNY   64  61  88 CALM      30.02R
KNOXVILLE *    MOSUNNY   66  61  82 S3        29.99R
MARSHALLTOWN   PTSUNNY   62  60  93 SW3       30.01R
PELLA *        CLOUDY    66  64  94 CALM      30.01R
PERRY *          N/A     66  63  88 CALM      30.02R
$$

IAZ004>006-015-016-023>025-035-036-041400-
   NORTH CENTRAL IOWA

CITY           SKY/WX    TMP DP  RH WIND       PRES   REMARKS
ALGONA *       SUNNY     61  57  88 CALM      30.05R
CLARION *      SUNNY     63  59  88 CALM      30.04R
ESTHERVILLE    PTSUNNY   61  57  87 CALM      30.05R
FORT DODGE *   CLOUDY    63  57  82 CALM      30.05R
MASON CITY     PTSUNNY   63  57  81 NW3       30.05R
FOREST CITY *  SUNNY     59  57  94 CALM      30.04R
IOWA FALLS *     N/A     61  59  94 CALM      30.04R
$$

IAZ007>011-017>019-026>030-037>042-050>054-066-041400-
   NORTHEAST IOWA

CITY           SKY/WX    TMP DP  RH WIND       PRES   REMARKS
CEDAR RAPIDS   PTSUNNY   64  62  93 NW3       29.99S
CHARLES CITY * SUNNY     59  59 100 N5        30.03S
CLINTON *      SUNNY     61  59  94 NW5       30.01S
DECORAH *      SUNNY     59  54  82 CALM      30.02R
DUBUQUE        SUNNY     64  57  78 W6        30.00S
MONTICELLO *   SUNNY     63  59  88 CALM      30.00R
OELWEIN *      SUNNY     61  59  94 N3        30.02S
WATERLOO       PTSUNNY   62  59  90 NW5       30.00S
$$

IAZ064-065-067-068-078-041400-
   EAST CENTRAL IOWA

CITY           SKY/WX    TMP DP  RH WIND       PRES   REMARKS
DAVENPORT      MOSUNNY   64  60  87 W3        29.99F
IOWA CITY      PTSUNNY   65  59  81 CALM      30.00S
MT. PLEASANT * PTSUNNY   68  63  83 CALM      30.00R
MUSCATINE *    SUNNY     64  59  82 CALM      29.99S
QUAD CITIES    MOSUNNY   67  61  81 W3        29.98F
$$

IAZ062-063-075>077-085>089-095>099-041400-
   SOUTHEAST IOWA

CITY           SKY/WX    TMP DP  RH WIND       PRES   REMARKS
BURLINGTON     PTSUNNY   69  60  73 CALM      30.00R
FAIRFIELD *    SUNNY     66  63  88 CALM      30.00R
FORT MADISON * SUNNY     68  64  88 CALM      30.01R
KEOKUK *       MOSUNNY   68  64  88 CALM      29.99S
OSKALOOSA *      N/A     66  63  88 CALM      30.01R
CENTERVILLE *  SUNNY     64  63  94 CALM      30.02R
OTTUMWA        PTSUNNY   69  61  75 N3        29.98S
WASHINGTON *   SUNNY     66  61  82 CALM      30.02R
$$

ABBREVIATIONS USED IN REMARKS
   TC - TEMPERATURES IN CELSIUS
  WCI - WIND CHILL INDEX
   HX - HEAT INDEX
  VSB - VISIBILITY
$$




USA.gov is the U.S. government's official web portal to all federal, state and local government web resources and services.